Sturgis, MI

1:26 AM EST on November 20, 2019 (GMT -0500)
Kirsch Municipal

Weather History for KIRS - October, 2019

Change the Weather History Date:

Sunday, October 20, 2019

  Actual Average (KHAI) Record (KHAI)
Temperature  
Mean Temperature 60 °F -  
Max Temperature 69 °F 58 °F 85 °F (1953)
Min Temperature 51 °F 36 °F 20 °F (1972)
Degree Days  
Heating Degree Days 5    
Growing Degree Days 10 (Base 50)    
Moisture  
Dew Point 47 °F    
Average Humidity 69    
Maximum Humidity 89    
Minimum Humidity 45    
Precipitation  
Precipitation 0.00 in - - ()
Sea Level Pressure  
Sea Level Pressure 29.87 in    
Wind  
Wind Speed 1 mph ()    
Max Wind Speed 6 mph    
Max Gust Speed -    
Visibility 10.0 miles    
Events      
Averages and records for this station are not official NWS values.
T = Trace of Precipitation, MM = Missing Value Source: Averaged Metar Reports

Daily Weather History Graph

Daily Weather History Graph

Search for Another Location

Airport or City:

Astronomy

Oct. 20, 2019 Rise Set
Actual Time 7:59 AM EDT 6:52 PM EDT
Civil Twilight 7:31 AM EDT 7:21 PM EDT
Nautical Twilight 6:58 AM EDT 7:53 PM EDT
Astronomical Twilight 6:26 AM EDT 8:25 PM EDT
Moon 11:57 PM EDT 2:30 PM EDT
Length of Visible Light 11h 49m
Length of Day
10h 53m
Waning Gibbous, 59% of the Moon is Illuminated
Oct 20
Waning Gibbous
Oct 21
Last Quarter
Oct 27
New
Nov 4
First Quarter
Nov 12
Full

Hourly Weather History & Observations

Time (EDT) Temp. Dew Point Humidity Pressure Visibility Wind Dir Wind Speed Gust Speed Precip Events Conditions
12:15 AM 53.8 °F 40.5 °F 61% 29.78 in 10.0 mi SSE 4.6 mph - N/A   Clear
12:20 AM 53.6 °F 40.5 °F 61% 29.78 in 10.0 mi SSE 5.8 mph - N/A   Scattered Clouds
12:37 AM 53.4 °F 40.6 °F 62% 29.79 in 10.0 mi Calm Calm - N/A   Clear
12:56 AM 53.1 °F 41.0 °F 64% 29.78 in 10.0 mi Calm Calm - N/A   Clear
1:15 AM 53.2 °F 40.8 °F 63% 29.78 in 10.0 mi Calm Calm - N/A   Clear
1:16 AM 53.2 °F 40.8 °F 63% 29.78 in 10.0 mi Calm Calm - N/A   Clear
1:35 AM 53.1 °F 41.0 °F 64% 29.78 in 10.0 mi Calm Calm - N/A   Clear
1:59 AM 53.2 °F 41.4 °F 64% 29.77 in 10.0 mi SSE 3.5 mph - N/A   Scattered Clouds
2:17 AM 53.2 °F 41.4 °F 64% 29.77 in 10.0 mi SSE 3.5 mph - N/A   Mostly Cloudy
2:35 AM 53.6 °F 41.5 °F 64% 29.77 in 10.0 mi Calm Calm - N/A   Overcast
2:36 AM 53.6 °F 41.5 °F 64% 29.77 in 10.0 mi SSE 3.5 mph - N/A   Overcast
2:55 AM 53.1 °F 41.9 °F 66% 29.79 in 10.0 mi West 3.5 mph - N/A   Overcast
3:15 AM 53.1 °F 42.3 °F 67% 29.79 in 10.0 mi Calm Calm - N/A   Overcast
3:38 AM 52.7 °F 42.8 °F 69% 29.78 in 10.0 mi Calm Calm - N/A   Overcast
3:55 AM 52.7 °F 43.2 °F 70% 29.78 in 10.0 mi Calm Calm - N/A   Overcast
4:15 AM 52.3 °F 43.3 °F 71% 29.78 in 10.0 mi Calm Calm - N/A   Overcast
4:16 AM 52.3 °F 43.5 °F 72% 29.78 in 10.0 mi Calm Calm - N/A   Overcast
4:35 AM 52.9 °F 43.3 °F 70% 29.78 in 10.0 mi Calm Calm - N/A   Overcast
4:36 AM 52.9 °F 43.5 °F 71% 29.78 in 10.0 mi Calm Calm - N/A   Overcast
4:59 AM 52.9 °F 44.4 °F 73% 29.78 in 10.0 mi Calm Calm - N/A   Overcast
5:17 AM 52.7 °F 44.1 °F 72% 29.78 in 10.0 mi Calm Calm - N/A   Overcast
5:35 AM 51.8 °F 44.6 °F 76% 29.79 in 10.0 mi Calm Calm - N/A   Overcast
5:56 AM 51.1 °F 43.9 °F 76% 29.80 in 10.0 mi Calm Calm - N/A   Overcast
6:15 AM 51.6 °F 44.4 °F 76% 29.80 in 10.0 mi Calm Calm - N/A   Overcast
6:38 AM 52.0 °F 45.0 °F 77% 29.81 in 10.0 mi Calm Calm - N/A   Overcast
6:56 AM 52.5 °F 44.1 °F 73% 29.82 in 10.0 mi Calm Calm - N/A   Overcast
7:15 AM 52.5 °F 44.8 °F 75% 29.82 in 10.0 mi Calm Calm - N/A   Overcast
7:16 AM 52.5 °F 44.8 °F 75% 29.82 in 10.0 mi Calm Calm - N/A   Overcast
7:35 AM 52.0 °F 45.0 °F 77% 29.82 in 10.0 mi Calm Calm - N/A   Overcast
7:59 AM 52.3 °F 46.4 °F 80% 29.83 in 10.0 mi Calm Calm - N/A   Overcast
8:17 AM 52.7 °F 45.9 °F 78% 29.84 in 10.0 mi Calm Calm - N/A   Overcast
8:36 AM 53.1 °F 45.9 °F 77% 29.84 in 10.0 mi Calm Calm - N/A   Overcast
8:55 AM 53.2 °F 46.2 °F 77% 29.85 in 10.0 mi Calm Calm - N/A   Overcast
9:15 AM 53.6 °F 46.0 °F 76% 29.86 in 10.0 mi Calm Calm - N/A   Overcast
9:20 AM 53.8 °F 46.2 °F 76% 29.87 in 10.0 mi Calm Calm - N/A   Overcast
9:38 AM 54.1 °F 45.7 °F 73% 29.87 in 10.0 mi Calm Calm - N/A   Overcast
9:56 AM 54.9 °F 46.0 °F 72% 29.88 in 10.0 mi Calm Calm - N/A   Overcast
10:15 AM 55.6 °F 46.4 °F 71% 29.88 in 10.0 mi Calm Calm - N/A   Overcast
10:35 AM 56.7 °F 46.9 °F 70% 29.89 in 10.0 mi Calm Calm - N/A   Overcast
10:36 AM 56.7 °F 46.9 °F 70% 29.89 in 10.0 mi Calm Calm - N/A   Overcast
11:17 AM 59.9 °F 49.1 °F 67% 29.89 in 10.0 mi NNW 3.5 mph - N/A   Mostly Cloudy
11:35 AM 62.1 °F 49.6 °F 64% 29.89 in 10.0 mi North 5.8 mph - N/A   Overcast
11:55 AM 62.6 °F 48.9 °F 61% 29.90 in 10.0 mi North 3.5 mph - N/A   Mostly Cloudy
11:56 AM 62.6 °F 48.9 °F 61% 29.91 in 10.0 mi NNW 3.5 mph - N/A   Mostly Cloudy
12:20 PM 63.9 °F 48.7 °F 58% 29.91 in 10.0 mi Calm Calm - N/A   Clear
12:38 PM 64.8 °F 48.6 °F 56% 29.90 in 10.0 mi NW 4.6 mph - N/A   Clear
12:56 PM 65.1 °F 48.0 °F 54% 29.91 in 10.0 mi NW 3.5 mph - N/A   Clear
1:15 PM 66.4 °F 48.6 °F 53% 29.91 in 10.0 mi Calm Calm - N/A   Clear
1:16 PM 66.6 °F 48.6 °F 52% 29.91 in 10.0 mi Calm Calm - N/A   Clear
1:35 PM 66.7 °F 49.1 °F 53% 29.90 in 10.0 mi NW 4.6 mph - N/A   Clear
1:36 PM 67.1 °F 49.3 °F 53% 29.90 in 10.0 mi WNW 4.6 mph - N/A   Clear
1:59 PM 67.5 °F 48.9 °F 51% 29.89 in 10.0 mi Calm Calm - N/A   Mostly Cloudy
2:17 PM 66.7 °F 48.2 °F 51% 29.89 in 10.0 mi West 3.5 mph - N/A   Scattered Clouds
2:35 PM 67.1 °F 47.8 °F 50% 29.88 in 10.0 mi Calm Calm - N/A   Scattered Clouds
2:55 PM 66.4 °F 48.0 °F 52% 29.88 in 10.0 mi NW 4.6 mph - N/A   Scattered Clouds
2:56 PM 66.6 °F 48.0 °F 51% 29.88 in 10.0 mi NNW 4.6 mph - N/A   Scattered Clouds
3:15 PM 69.3 °F 47.3 °F 45% 29.88 in 10.0 mi Calm Calm - N/A   Clear
3:38 PM 68.2 °F 47.1 °F 47% 29.89 in 10.0 mi SW 3.5 mph - N/A   Scattered Clouds
3:56 PM 68.7 °F 47.8 °F 47% 29.89 in 10.0 mi NNW 4.6 mph - N/A   Scattered Clouds
4:15 PM 68.5 °F 48.2 °F 48% 29.89 in 10.0 mi Calm Calm - N/A   Scattered Clouds
4:35 PM 68.7 °F 48.2 °F 48% 29.89 in 10.0 mi WNW 3.5 mph - N/A   Mostly Cloudy
4:36 PM 68.7 °F 47.8 °F 47% 29.89 in 10.0 mi Calm Calm - N/A   Mostly Cloudy
4:59 PM 66.9 °F 47.5 °F 50% 29.89 in 10.0 mi Calm Calm - N/A   Mostly Cloudy
5:17 PM 64.8 °F 50.5 °F 60% 29.89 in 10.0 mi Calm Calm - N/A   Scattered Clouds
5:35 PM 67.5 °F 48.7 °F 51% 29.89 in 10.0 mi Calm Calm - N/A   Clear
5:55 PM 67.8 °F 48.9 °F 51% 29.89 in 10.0 mi Calm Calm - N/A   Clear
6:15 PM 65.1 °F 51.6 °F 62% 29.91 in 10.0 mi Calm Calm - N/A   Clear
6:20 PM 64.2 °F 50.9 °F 62% 29.90 in 10.0 mi Calm Calm - N/A   Clear
6:38 PM 62.2 °F 50.9 °F 66% 29.91 in 10.0 mi Calm Calm - N/A   Clear
6:56 PM 59.9 °F 51.1 °F 73% 29.91 in 10.0 mi Calm Calm - N/A   Scattered Clouds
7:15 PM 57.9 °F 50.7 °F 77% 29.92 in 10.0 mi Calm Calm - N/A   Scattered Clouds
7:35 PM 56.7 °F 51.4 °F 83% 29.93 in 10.0 mi Calm Calm - N/A   Mostly Cloudy
7:36 PM 56.7 °F 51.6 °F 83% 29.93 in 10.0 mi Calm Calm - N/A   Mostly Cloudy
7:59 PM 55.6 °F 51.3 °F 85% 29.93 in 10.0 mi Calm Calm - N/A   Mostly Cloudy
8:17 PM 54.3 °F 50.5 °F 87% 29.93 in 10.0 mi Calm Calm - N/A   Mostly Cloudy
8:35 PM 56.5 °F 50.9 °F 82% 29.94 in 10.0 mi Calm Calm - N/A   Mostly Cloudy
8:55 PM 54.5 °F 50.2 °F 85% 29.94 in 10.0 mi Calm Calm - N/A   Mostly Cloudy
8:56 PM 54.3 °F 50.2 °F 86% 29.94 in 10.0 mi Calm Calm - N/A   Mostly Cloudy
9:15 PM 53.4 °F 49.5 °F 86% 29.94 in 10.0 mi Calm Calm - N/A   Mostly Cloudy
9:20 PM 54.9 °F 51.3 °F 88% 29.94 in 10.0 mi Calm Calm - N/A   Mostly Cloudy
9:38 PM 53.1 °F 49.6 °F 88% 29.94 in 10.0 mi Calm Calm - N/A   Scattered Clouds
9:56 PM 52.3 °F 49.1 °F 89% 29.94 in 10.0 mi Calm Calm - N/A   Clear
10:15 PM 51.6 °F 48.2 °F 88% 29.94 in 10.0 mi NE 4.6 mph - N/A   Scattered Clouds
10:35 PM 54.3 °F 50.5 °F 87% 29.94 in 10.0 mi NE 5.8 mph - N/A   Clear
10:36 PM 54.5 °F 50.4 °F 86% 29.94 in 10.0 mi NE 5.8 mph - N/A   Scattered Clouds
10:59 PM 54.7 °F 50.2 °F 85% 29.94 in 10.0 mi NE 5.8 mph - N/A   Clear
11:17 PM 54.0 °F 50.0 °F 86% 29.94 in 10.0 mi NE 4.6 mph - N/A   Scattered Clouds
11:35 PM 54.1 °F 50.0 °F 86% 29.94 in 10.0 mi ENE 5.8 mph - N/A   Overcast
11:36 PM 54.1 °F 50.0 °F 86% 29.94 in 10.0 mi ENE 4.6 mph - N/A   Overcast
11:55 PM 53.6 °F 49.3 °F 85% 29.93 in 10.0 mi East 3.5 mph - N/A   Overcast
11:56 PM 53.6 °F 49.3 °F 85% 29.93 in 10.0 mi East 4.6 mph - N/A   Overcast